Location: Karcze
(52.0945°N, 22.4786°E)
Time: 12:41:28
(UTC+00:00)

S-56A Canister/Altair - Visible Passes

Search period start: 02 August 2021 00:00
Search period end: 12 August 2021 00:00
Orbit: 631 x 2501 km, 38.9° (Epoch: 01 August)

Date Brightness Start Highest point End Pass type
(mag) Time Alt. Az. Time Alt. Az. Time Alt. Az.
02 Aug 10.9 18:50:50 10° W 19:01:48 26° SW 19:11:21 10° S visible
04 Aug 11.4 19:54:17 10° WSW 19:58:22 12° SW 20:02:15 10° SW visible
05 Aug 11.3 19:19:01 10° WSW 19:25:30 14° SW 19:31:36 10° SSW visible
06 Aug 11.3 18:44:31 10° W 18:52:34 17° SW 19:00:10 10° SSW visible
